DC3YC-13 Weather Reports


time (UTC)temp
C
wind
direction
speed
KPH
gust
KPH
rain 1hr
cm
rain 24hr
cm
rain mn
cm
humidity
%
barometer
mb
20260506080633 15 355 6.4 0.0 0.00 0.43 0.00 92 1005.1
20260506072633 12 355 6.4 0.0 0.00 0.43 0.00 98 1005.1
20260506071633 12 350 3.2 0.0 0.00 0.43 0.00 99 1005.1
20260506070633 12 350 9.7 0.0 0.00 0.43 0.00 100 1005.1
20260506061633 11 345 6.4 0.0 0.00 0.43 0.00 100 1005.1
20260506060633 11 345 1.6 0.0 0.00 0.43 0.00 100 1005.1
20260506050633 8 315 0.0 0.0 0.00 0.43 0.00 100 1005.1
20260506044633 8 315 0.0 0.0 0.00 0.43 0.00 100 1005.1
20260506043633 8 315 0.0 0.0 0.00 0.43 0.00 100 1005.1
20260506042633 8 320 0.0 0.0 0.00 0.43 0.00 100 1005.1
20260506041633 7 320 0.0 0.0 0.00 0.43 0.00 100 1005.1
20260506040633 7 320 0.0 0.0 0.00 0.43 0.00 100 1005.1
20260506035633 7 320 0.0 0.0 0.00 0.00 0.00 100 1005.1
20260506034633 7 320 0.0 0.0 0.00 0.00 0.00 100 1005.1
20260506033633 7 320 0.0 0.0 0.00 0.00 0.00 100 1005.1
20260506032633 8 325 0.0 0.0 0.00 0.00 0.00 100 1005.1
20260506031633 8 325 0.0 0.0 0.00 0.00 0.00 100 1005.1
20260506030633 8 320 0.0 0.0 0.00 0.00 0.00 100 1005.1
20260506025633 8 320 0.0 0.0 0.00 0.00 0.00 100 1005.1
20260506024633 8 325 0.0 0.0 0.00 0.00 0.00 100 1005.1
20260506023633 8 325 0.0 0.0 0.00 0.00 0.00 100 1005.1
20260506022633 8 330 0.0 0.0 0.00 0.00 0.00 100 1006.1
20260506021633 8 330 0.0 0.0 0.00 0.00 0.00 100 1005.1
20260506020633 8 330 0.0 0.0 0.00 0.00 0.00 100 1005.1
20260506015633 10 330 0.0 0.0 0.00 0.00 0.00 100 1004.9
20260506014633 8 330 0.0 0.0 0.00 0.00 0.00 100 1004.9
20260506013633 8 330 0.0 0.0 0.00 0.00 0.00 100 1004.9
20260506012633 10 330 0.0 0.0 0.00 0.00 0.00 100 1004.9
20260506011633 10 330 0.0 0.0 0.00 0.00 0.00 100 1004.9
20260506010633 10 330 0.0 0.0 0.00 0.00 0.00 100 1004.9
20260506005633 10 330 0.0 0.0 0.00 0.00 0.00 100 1006.0
20260506004633 10 330 0.0 0.0 0.00 0.00 0.00 100 1004.9
20260506003633 10 330 0.0 0.0 0.00 0.00 0.00 100 1004.9
20260506002633 10 330 0.0 0.0 0.00 0.00 0.00 100 1004.9
20260506001633 10 330 0.0 0.0 0.00 0.00 0.00 100 1006.0
20260506000633 11 330 0.0 0.0 0.00 0.00 0.00 100 1006.0
20260505235633 11 330 0.0 0.0 0.00 0.00 0.00 100 1006.0
20260505234633 11 330 0.0 0.0 0.00 0.00 0.00 100 1006.0
20260505233633 11 330 0.0 0.0 0.00 0.00 0.00 100 1006.0
20260505232633 11 330 0.0 0.0 0.00 0.00 0.00 100 1006.0
20260505231633 11 330 0.0 0.0 0.00 0.00 0.00 100 1006.0
20260505230633 11 330 0.0 0.0 0.00 0.00 0.00 100 1006.0
20260505225633 11 330 0.0 0.0 0.00 0.00 0.00 100 1006.0
20260505224633 11 330 0.0 0.0 0.00 0.00 0.00 100 1006.0
20260505223633 11 330 1.6 0.0 0.00 0.00 0.00 100 1006.0
20260505222633 11 330 0.0 0.0 0.03 0.00 0.00 100 1006.0
20260505221633 11 330 1.6 0.0 0.03 0.00 0.00 100 1006.0
20260505220633 11 330 0.0 0.0 0.03 0.00 0.00 100 1006.0
20260505215633 11 335 4.8 0.0 0.03 0.00 0.43 100 1006.0
20260505214633 11 335 0.0 0.0 0.03 0.00 0.43 100 1006.0
20260505213633 11 335 0.0 0.0 0.03 0.00 0.43 100 1006.0
20260505212633 11 335 0.0 0.0 0.00 0.00 0.43 100 1006.0
20260505211633 11 335 0.0 0.0 0.00 0.00 0.41 100 1006.0
20260505210633 10 340 0.0 0.0 0.00 0.00 0.41 100 1006.0
20260505205633 11 340 0.0 0.0 0.00 0.00 0.41 100 1006.0
20260505204633 11 340 0.0 0.0 0.00 0.00 0.41 100 1006.0
20260505203633 11 340 0.0 0.0 0.00 0.00 0.41 100 1006.0
20260505202633 11 340 0.0 0.0 0.00 0.00 0.41 100 1006.0
20260505201633 11 340 0.0 0.0 0.00 0.00 0.41 100 1006.0
20260505200633 11 340 0.0 0.0 0.00 0.00 0.41 100 1004.9
20260505195633 11 335 0.0 0.0 0.00 0.00 0.41 100 1004.9
20260505194633 11 335 0.0 0.0 0.00 0.00 0.41 100 1004.9
20260505193633 12 335 0.0 0.0 0.00 0.00 0.41 100 1006.0
20260505192633 12 335 0.0 0.0 0.00 0.00 0.41 100 1006.0
20260505191633 12 335 0.0 0.0 0.00 0.00 0.41 100 1006.0
20260505190633 12 335 0.0 0.0 0.00 0.00 0.41 100 1004.9
20260505185633 12 335 0.0 0.0 0.00 0.00 0.41 100 1004.9
20260505184633 12 340 0.0 0.0 0.00 0.00 0.41 99 1004.9
20260505183633 12 335 0.0 0.0 0.00 0.00 0.41 99 1004.9
20260505182633 12 335 0.0 0.0 0.00 0.00 0.41 99 1004.9
20260505181633 12 340 0.0 0.0 0.00 0.00 0.41 99 1004.9
20260505180633 12 340 0.0 0.0 0.00 0.00 0.41 99 1004.9
20260505175633 12 340 0.0 0.0 0.00 0.00 0.41 99 1004.8
20260505174633 12 340 0.0 0.0 0.00 0.00 0.41 99 1004.8
20260505173633 12 340 4.8 0.0 0.00 0.00 0.41 99 1004.8
20260505172633 13 340 3.2 0.0 0.18 0.00 0.41 99 1004.8
20260505171633 13 335 0.0 0.0 0.18 0.00 0.41 99 1004.8
20260505170633 13 335 8.0 0.0 0.18 0.00 0.41 99 1004.8
20260505165633 13 335 1.6 0.0 0.18 0.00 0.41 99 1003.8
20260505164633 13 340 3.2 0.0 0.18 0.00 0.41 99 1004.8
20260505163633 13 340 6.4 0.0 0.18 0.00 0.41 99 1004.8
20260505162633 13 340 1.6 0.0 0.23 0.00 0.41 99 1004.8
20260505161633 13 340 4.8 0.0 0.23 0.00 0.36 98 1004.8
20260505160633 13 340 9.7 0.0 0.23 0.00 0.33 98 1004.8
20260505152633 15 350 17.7 0.0 0.00 0.00 0.18 94 1004.8
20260505151633 16 355 17.7 0.0 0.00 0.00 0.15 88 1004.8
20260505150633 20 355 6.4 0.0 0.00 0.00 0.00 64 1003.8
20260505140633 22 355 3.2 0.0 0.00 0.00 0.00 43 1002.7
20260505124633 26 355 12.9 0.0 0.00 0.00 0.00 37 1003.8
20260505123633 26 355 9.7 0.0 0.00 0.00 0.00 39 1003.8
20260505122633 25 355 0.0 0.0 0.00 0.00 0.00 40 1003.8
20260505121633 23 355 3.2 0.0 0.00 0.00 0.00 40 1003.8
20260505120633 25 355 8.0 0.0 0.00 0.00 0.00 39 1003.8
20260505115633 26 355 11.3 0.0 0.00 0.00 0.00 37 1003.8
20260505114633 26 355 14.5 0.0 0.00 0.00 0.00 37 1003.8
20260505113633 27 350 6.4 0.0 0.00 0.00 0.00 36 1004.8
20260505112633 26 350 3.2 0.0 0.00 0.00 0.00 38 1004.8
20260505111633 26 355 1.6 0.0 0.00 0.00 0.00 36 1004.8
20260505110633 26 355 12.9 0.0 0.00 0.00 0.00 37 1004.9
20260505101633 26 355 9.7 0.0 0.00 0.00 0.00 43 1004.9
20260505100633 25 350 11.3 0.0 0.00 0.00 0.00 46 1004.9
20260505095633 23 355 9.7 0.0 0.00 0.00 0.00 43 1004.9
20260505094633 22 355 11.3 0.0 0.00 0.00 0.00 48 1004.9
20260505093633 23 355 6.4 0.0 0.00 0.00 0.00 47 1004.9
20260505092633 23 355 12.9 0.0 0.00 0.00 0.00 47 1006.0
20260505091633 23 355 9.7 0.0 0.00 0.00 0.00 45 1006.0
20260505090633 23 350 8.0 0.0 0.00 0.00 0.00 50 1006.0
20260505085633 22 355 1.6 0.0 0.00 0.00 0.00 51 1006.0
20260505084633 22 355 9.7 0.0 0.00 0.00 0.00 54 1006.0
20260505083633 22 355 6.4 0.0 0.00 0.00 0.00 57 1006.0
20260505082633 21 355 8.0 0.0 0.00 0.00 0.00 59 1006.0
20260505081633 21 355 8.0 0.0 0.00 0.00 0.00 60 1006.0